Regional Weather Roundup
Issued by NWS

Home | Current Version | Previous Version | Graphics & Text | Print | Product List | Glossary On
Versions: 1 2 3 4 5 6 7 8 9 10 11 12 13 14 15 16 17 18 19 20 21 22 23 24 25 26 27 28 29 30 31 32 33 34 35 36 37 38 39 40 41 42 43 44 45 46 47 48 49 50
000
ASUS45 KTFX 192210
RWRMT
MONTANA REGIONAL WEATHER ROUNDUP
NATIONAL WEATHER SERVICE GREAT FALLS MT
400 PM MDT SAT AUG 19 2017

NOTE: "FAIR" INDICATES FEW OR NO CLOUDS BELOW 12000 FEET WITH NO
SIGNIFICANT WEATHER AND/OR OBSTRUCTIONS TO VISIBILITY.

MTZ001>007-043-192300-
WEST OF THE DIVIDE

CITY           SKY/WX    TMP DP  RH WIND       PRES   REMARKS
KALISPELL      SUNNY     80  37  21 W13       29.96S
MISSOULA       PTSUNNY   78  39  24 NW21G28   30.01S
BUTTE          SUNNY     80  27  14 NW12G28   30.04F
MULLAN PASS    MOSUNNY   61  37  41 VRB7      30.18S
ANACONDA         N/A     81  25  12 W15G28    30.01S
DEER LODGE       N/A     79  36  21 NW17G25   30.02F
EUREKA           N/A     79  34  19 MISG      29.95R
HAMILTON         N/A     79  36  21 SW6       30.00S
LIBBY            N/A     79  36  21 W5        29.98F
RONAN            N/A     78  38  23 SW13      30.06S
$$

MTZ008-052>055-192300-
SOUTHWEST MONTANA

CITY           SKY/WX    TMP DP  RH WIND       PRES   REMARKS
BOZEMAN        SUNNY     84  40  21 W10       29.96F
DILLON         SUNNY     78  45  30 W10       30.01S
W YELLOWSTONE  CLOUDY    72  30  21 SW21G26   30.16F
ENNIS          SUNNY     82  21  10 W16G25    30.06F
THREE FORKS      N/A     87  32  14 SW7       29.94F
$$

MTZ009-010-012-014-046-048-049-054-192300-
EAST SLOPES AND CENTRAL MONTANA

CITY           SKY/WX    TMP DP  RH WIND       PRES   REMARKS
CUT BANK       SUNNY     70  37  29 VRB3      30.00F
GREAT FALLS    MOSUNNY   76  38  25 VRB6      29.97F
MALMSTROM AFB  MOSUNNY   74  39  27 N10       29.97F
HELENA         SUNNY     87  30  13 W15G28    29.93S
AUGUSTA          N/A     71  38  30 E9        30.00F
BOWMANS CRNR     N/A     72  40  31 NE9       29.97F
CHOTEAU          N/A     70  39  32 CALM      30.02F
FAIRFIELD        N/A     73  38  28 N13G22    29.99S
POWER            N/A     72  37  28 N8        29.99S
RAYNESFORD       N/A     74  38  27 NW9       29.98F
ULM              N/A     75  40  28 NE6       29.96F
$$

MTZ011-013-016-021-045-047-050-051-192300-
NORTH CENTRAL MONTANA

CITY           SKY/WX    TMP DP  RH WIND       PRES   REMARKS
HAVRE          CLOUDY    74  38  27 W7        29.95F
LEWISTOWN      MOSUNNY   76  38  25 MISG      29.98F
N BAR RANCH      N/A     75  36  23 NE14G25   30.02R
CHINOOK          N/A     75  37  25 NW9       29.94F
DENTON           N/A     74  38  27 NW12G18   29.94F
GEYSER           N/A     74  39  27 N14       29.98F
GRASS RANGE      N/A     79  35  20 N13G20    29.93S
JUDITH GAP       N/A     76  38  25 N20G28    29.97F
WINIFRED         N/A     74  37  26 NW8       29.97S
$$

MTZ017>020-022>027-061-062-192300-
NORTHEAST MONTANA

CITY           SKY/WX    TMP DP  RH WIND       PRES   REMARKS
GLASGOW        PTSUNNY   80  38  22 NW16G25   29.90R
JORDAN           N/A     83  39  21 NW20G28   29.90F
SIDNEY         SUNNY     85  48  27 NW20      29.82S
WOLF POINT     SUNNY     84  40  21 NW17G25   29.86S
MALTA          SUNNY     77  39  25 W9G17     29.92S
PLENTYWOOD       N/A     75  41  29 NW22G32   29.83R
POPLAR           N/A     81  43  26 N15G25    29.85S
$$

MTZ028>42-056>058-192300-
SOUTHCENTRAL AND SOUTHEAST MONTANA

CITY           SKY/WX    TMP DP  RH WIND       PRES   REMARKS
BAKER          MOSUNNY   84  37  18 NW21G29   29.89R
BILLINGS       CLOUDY    84  29  13 E7        29.93F
LIVINGSTON     SUNNY     87  32  14 W14       29.95F
MILES CITY     MOSUNNY   86  36  16 N13G26    29.89S
BIG TIMBER     SUNNY     86  28  12 W13G21    29.96F
HARLOWTON        N/A     79  33  19 MISG      29.96S
LAUREL           N/A     86  34  15 NE5       29.92F
$$

REGIONAL REPORTS...DAKOTAS

CITY           SKY/WX    TMP DP  RH WIND       PRES   REMARKS
WILLISTON      SUNNY     84  49  29 NW23G32   29.79S
MINOT          SUNNY     90  45  21 W20G25    29.67S
DICKINSON      SUNNY     85  41  21 NW21G28   29.80R
BEACH            N/A     81  41  24 NW21G29   29.90R
CROSBY           N/A     81  46  30 NW24G33   29.78R
TIOGA            N/A     81  50  34 NW21G26   29.79R
WATFORD CITY     N/A     82  52  34 NW17G28   29.79R
BISMARCK       CLOUDY    84  63  49 SW6       29.74S
GRAND FORKS    MOSUNNY   86  60  41 S21G28    29.72F
FARGO          SUNNY     81  61  50 S15G22    29.78F
BUFFALO SD       N/A     88  38  17 NW18      29.82S
RAPID CITY     SUNNY     94  42  16 NW8       29.85S HX  90
$$

REGIONAL REPORTS...WYOMING/IDAHO/WASHINGTON

CITY           SKY/WX    TMP DP  RH WIND       PRES   REMARKS
GILLETTE       CLOUDY    88  27  11 CALM      29.94F
SHERIDAN       CLOUDY    84  34  16 N9        29.95F HAZE
BUFFALO WY     CLOUDY    83  28  13 N12       30.02S HAZE
CODY           MOSUNNY   80  37  21 NE5       30.00F
YELLOWSTONE LA   N/A     69  25  19 W8        30.26F
IDAHO FALLS    SUNNY     88  33  14 S18       30.03F
SALMON         SUNNY     85  39  19 N6        29.94F
BOISE          SUNNY     86  38  18 W10       29.98F
SPOKANE        MOSUNNY   79  34  19 W12G18    30.05F
$$

REGIONAL REPORTS...ALBERTA

CITY           SKY/WX    TMP DP  RH WIND       PRES   REMARKS
EDMONTON       MOSUNNY   64  39  39 W13G28    29.92S
CALGARY        MOSUNNY   64  37  36 S7        30.00S
LETHBRIDGE     MOSUNNY   68  37  32 E13       30.00F
MEDICINE HAT   MOSUNNY   68  32  26 NW8       30.00F
$$

REGIONAL REPORTS...SASKATCHEWAN

CITY           SKY/WX    TMP DP  RH WIND       PRES   REMARKS
SWIFT CURRENT  PTSUNNY   64  34  32 NW20G30   29.95R
REGINA         PTSUNNY   75  41  29 NW23G32   29.81R
SASKATOON      MOSUNNY   70  37  30 NW21G33   29.84R
$$



USA.gov is the U.S. government's official web portal to all federal, state and local government web resources and services.